Weather History for KSTS - November, 2014

Change the Weather History Date:

Wednesday, November 19, 2014

  Actual Average Record
Temperature  
Mean Temperature 51 °F 51 °F  
Max Temperature 54 °F 63 °F 75 °F (2005)
Min Temperature 48 °F 40 °F 30 °F (2009)
Degree Days  
Heating Degree Days 14    
Month to date heating degree days 153  
Since 1 July heating degree days 240  
Cooling Degree Days 0    
Month to date cooling degree days 0  
Year to date cooling degree days 499  
Growing Degree Days 1 (Base 50)    
Moisture  
Dew Point 50 °F    
Average Humidity 86    
Maximum Humidity 100    
Minimum Humidity 71    
Precipitation  
Precipitation 0.36 in 0.15 in 1.42 in (1999)
Month to date precipitation 0.46 2.78  
Year to date precipitation 14.37 27.34  
Since 1 July precipitation 1.80 5.25  
Sea Level Pressure  
Sea Level Pressure 30.02 in    
Wind  
Wind Speed 2 mph (NW)    
Max Wind Speed 10 mph    
Max Gust Speed 13 mph    
Visibility 4 miles    
Events Rain    
T = Trace of Precipitation, MM = Missing Value Source: NWS Daily Summary

Daily Weather History Graph

Daily Weather History Graph

Search for Another Location

Airport or City:

Trip Planner

Search our weather history database for the weather conditions in past years. The results will help you decide how hot, cold, wet, or windy it might be!

Date:

Astronomy

Nov. 19, 2014 Rise Set
Actual Time 6:57 AM PST 4:55 PM PST
Civil Twilight 6:28 AM PST 5:24 PM PST
Nautical Twilight 5:56 AM PST 5:56 PM PST
Astronomical Twilight 5:25 AM PST 6:27 PM PST
Moon 4:00 AM PST (11/19) 3:24 PM PST (11/19)
Length of Visible Light 10h 55m
Length of Day
9h 58m
Waning Crescent, 8% of the Moon is Illuminated
Nov 19
Waning Crescent
Nov 22
New
Nov 29
First Quarter
Dec 6
Full
Dec 14
Last Quarter

Hourly Weather History & Observations

Time (PST) Temp. Dew Point Humidity Pressure Visibility Wind Dir Wind Speed Gust Speed Precip Events Conditions
12:53 AM 50.0 °F 44.1 °F 80% 30.01 in 10.0 mi West 3.5 mph - N/A   Overcast
1:53 AM 51.1 °F 43.0 °F 74% 30.01 in 10.0 mi ENE 4.6 mph - N/A   Overcast
2:53 AM 50.0 °F 45.0 °F 83% 30.00 in 10.0 mi Calm Calm - 0.00 in Rain Light Rain
3:53 AM 48.9 °F 46.0 °F 90% 29.99 in 6.0 mi West 5.8 mph - 0.01 in Rain Rain
4:53 AM 48.9 °F 46.9 °F 93% 29.98 in 10.0 mi SW 4.6 mph - 0.01 in Rain Light Rain
5:53 AM 48.9 °F 46.9 °F 93% 29.97 in 6.0 mi Calm Calm - 0.01 in Rain Rain
6:53 AM 48.0 °F 46.9 °F 96% 29.98 in 8.0 mi North 3.5 mph - 0.08 in   Overcast
7:53 AM 50.0 °F 48.0 °F 93% 29.97 in 5.0 mi NNW 4.6 mph - 0.01 in Rain Light Rain
8:33 AM 50.0 °F 48.2 °F 94% 30.01 in 2.5 mi West 4.6 mph - 0.04 in Rain Rain
8:53 AM 50.0 °F 48.9 °F 96% 30.00 in 2.5 mi Calm Calm - 0.08 in Rain Light Rain
9:53 AM 52.0 °F 48.9 °F 89% 30.00 in 2.5 mi Calm Calm - 0.00 in Rain Light Rain
10:34 AM 51.8 °F 48.2 °F 88% 30.01 in 1.5 mi ESE 9.2 mph - 0.00 in Rain Light Rain
10:53 AM 52.0 °F 48.9 °F 89% 30.00 in 1.5 mi SSE 5.8 mph - 0.00 in Rain Light Rain
11:53 AM 52.0 °F 50.0 °F 93% 30.00 in 1.5 mi Calm Calm - 0.10 in Rain Light Rain
12:00 PM 51.8 °F 50.0 °F 94% 30.01 in 2.0 mi NNE 3.5 mph - 0.00 in Rain Light Rain
12:10 PM 51.8 °F 51.8 °F 100% 30.01 in 1.5 mi Calm Calm - 0.00 in Rain Light Rain
12:27 PM 51.8 °F 51.8 °F 100% 30.01 in 1.5 mi East 3.5 mph - 0.03 in Rain Rain
12:36 PM 51.8 °F 51.8 °F 100% 30.01 in 1.5 mi Calm Calm - 0.05 in Rain Rain
12:43 PM 51.8 °F 51.8 °F 100% 30.01 in 1.5 mi Calm Calm - 0.05 in Rain Light Rain
12:53 PM 52.0 °F 51.1 °F 97% 29.99 in 1.5 mi Calm Calm - 0.05 in Rain Light Rain
12:55 PM 53.6 °F 51.8 °F 94% 30.00 in 5.0 mi ENE 3.5 mph - 0.00 in Rain Light Rain
1:03 PM 53.6 °F 51.8 °F 94% 30.00 in 2.5 mi Calm Calm - 0.00 in Rain Light Rain
1:48 PM 53.6 °F 51.8 °F 94% 30.00 in 2.5 mi Calm Calm - 0.01 in Rain Light Rain
1:53 PM 53.1 °F 52.0 °F 96% 29.99 in 2.5 mi Calm Calm - 0.01 in Rain Light Rain
2:53 PM 54.0 °F 52.0 °F 93% 30.00 in 2.5 mi Calm Calm - 0.00 in Rain Light Rain
2:55 PM 54.0 °F 52.0 °F 93% 30.00 in 2.0 mi Calm Calm - 0.00 in Rain Light Rain
3:00 PM 53.6 °F 51.8 °F 94% 30.02 in 2.0 mi Calm Calm - 0.00 in Rain Light Rain
3:53 PM 53.1 °F 53.1 °F 100% 30.02 in 2.0 mi Calm Calm - 0.00 in Rain Light Rain
4:00 PM 53.6 °F 53.6 °F 100% 30.04 in 1.5 mi NNW 3.5 mph - 0.00 in Rain Light Rain
4:53 PM 53.1 °F 53.1 °F 100% 30.04 in 5.0 mi NW 3.5 mph - 0.00 in Rain Light Rain
5:15 PM 53.6 °F 53.6 °F 100% 30.06 in 5.0 mi NNW 3.5 mph - 0.00 in Rain Light Rain
5:53 PM 53.1 °F 53.1 °F 100% 30.05 in 5.0 mi NW 3.5 mph - 0.00 in Rain Light Rain
6:53 PM 53.1 °F 53.1 °F 100% 30.07 in 7.0 mi Calm Calm - 0.00 in Rain Light Rain
7:53 PM 53.1 °F 52.0 °F 96% 30.09 in 6.0 mi NW 4.6 mph - 0.00 in Rain Light Rain
8:53 PM 53.1 °F 52.0 °F 96% 30.10 in 6.0 mi NNW 3.5 mph - 0.00 in Rain Light Rain
9:53 PM 53.1 °F 52.0 °F 96% 30.12 in 7.0 mi Calm Calm - 0.00 in Rain Light Rain
10:53 PM 53.1 °F 52.0 °F 96% 30.12 in 6.0 mi Calm Calm - 0.00 in Rain Light Rain
11:43 PM 53.6 °F 51.8 °F 94% 30.13 in 5.0 mi WSW 3.5 mph - 0.00 in Rain Light Rain
11:53 PM 53.1 °F 52.0 °F 96% 30.12 in 6.0 mi West 3.5 mph - 0.00 in Rain Light Rain